Hourly Data Report for October 03, 2017

All times are specified in Local Standard Time (LST). Add 1 hour to adjust for Daylight Saving Time where and when it is observed.

EMERSON AUTO
MANITOBA

49°00'00.000" N
97°14'15.000" W
242.00 m
5020881
71560
WEX

Download Data

Hourly Data (October 2017)
Hourly Data Report for October 3, 2017
Temp Definition
°C
Dew Point Temp Definition
°C
Rel Hum Definition
%
Wind Dir Definition
10's deg

Wind Spd Definition
km/h
Visibility Definition
km
Stn Press Definition
kPa
Hmdx Definition


Wind Chill Definition


Weather Definition


TIME
00:00 4.9 3.9 94 30 3   98.36     LegendNANA
01:00 4.5 3.9 96 13 2   98.39     LegendNANA
02:00 5.4 4.7 95 14 4   98.43     LegendNANA
03:00 3.9 3.5 97 21 6   98.46     LegendNANA
04:00 3.5 3.2 98 23 5   98.49     LegendNANA
05:00 5.9 5.2 95 13 3   98.54     LegendNANA
06:00 5.6 5.1 96 21 2   98.54     LegendNANA
07:00 6.0 5.4 96 24 5   98.64     LegendNANA
08:00 6.3 5.5 95 26 4   98.76     LegendNANA
09:00 7.9 6.5 91 29 5   98.84     LegendNANA
10:00 8.3 6.7 90 22 5   98.95     LegendNANA
11:00 8.9 6.7 86 14 8   98.92     LegendNANA
12:00 11.2 6.6 73 18 12   98.96     LegendNANA
13:00 13.2 6.0 62 16 16   98.93     LegendNANA
14:00 14.3 3.6 49 19 24   98.91     LegendNANA
15:00 14.3 4.9 53 20 24   98.93     LegendNANA
16:00 15.0 2.2 42 22 20   98.98     LegendNANA
17:00 15.2 1.7 40 22 15   98.99     LegendNANA
18:00 11.1 2.8 57 26 9   99.04     LegendNANA
19:00 8.0 4.6 79 25 5   99.10     LegendNANA
20:00 8.5 4.7 77 25 9   99.14     LegendNANA
21:00 7.9 3.9 76 22 9   99.14     LegendNANA
22:00 8.2 4.6 78 26 9   99.16     LegendNANA
23:00 8.1 4.7 80 24 6   99.17     LegendNANA

Notes on Data Quality.

Legend

  • E = Estimated
  • M = Missing
  • NA = Not Available
  • ‡ = Partner data that is not subject to review by the National Climate Archives
Date modified: